Temperature
27 28 28 29 29 29 29 29 29 30 30 30 30 29 29 27 25 25 23 22 21 20 20 18 18 18 17 17 18 17 17 17 17 17 17 17 17 17 17 17 17 17 16 16
27 27 29 29 29 28 28 28 29 30 30 29 29 29 29 27 26 24 24 23 22 21 20 18 17 17 17 17 17 17 17 17 17 17 17 17 17 17 17 17 17 16 16 16
27 29 29 28 28 28 28 29 29 29 30 29 29 29 28 27 26 24 24 23 22 21 20 18 18 17 17 17 17 17 17 17 17 17 17 17 17 17 17 16 17 16 16 16
28 29 28 28 28 28 28 29 29 29 29 30 29 28 29 28 27 26 24 23 22 21 20 18 18 17 17 17 17 17 17 17 17 17 17 17 17 17 17 17 16 16 16 16
28 28 28 27 28 29 29 29 29 29 29 29 29 28 29 28 28 27 26 24 22 21 20 19 18 17 17 17 16 16 17 17 17 17 17 17 17 16 17 16 16 16 16 16
29 29 28 29 29 29 29 28 28 29 29 28 28 28 28 29 28 27 26 24 22 21 20 18 18 17 17 16 16 16 16 16 16 17 17 17 16 16 16 16 16 16 16 15
27 28 29 29 28 29 28 28 28 28 28 28 28 28 29 29 28 27 26 24 22 21 20 19 18 17 17 17 16 16 16 16 16 16 16 17 16 17 16 16 16 16 16 15
27 28 29 29 28 29 29 29 27 27 27 29 28 28 29 28 27 26 25 24 22 21 20 19 18 17 17 17 16 16 16 16 16 16 16 16 16 16 16 16 16 16 16 16
28 28 29 29 29 29 28 29 30 29 28 28 29 29 29 27 27 26 25 24 23 22 21 19 18 17 17 17 16 16 16 16 16 16 16 16 16 16 16 16 16 16 16 15
29 27 29 29 29 29 29 30 29 28 27 27 28 28 29 28 28 27 26 25 23 22 21 19 18 18 17 17 16 16 16 16 16 16 16 16 16 16 16 16 16 16 16 15
28 27 28 28 28 29 28 28 28 29 28 27 27 28 30 29 28 27 26 25 23 22 21 20 19 18 17 17 16 16 16 16 16 16 16 16 16 16 16 16 16 16 16 16
27 28 28 28 29 29 29 29 28 27 27 27 28 29 29 29 28 28 27 25 23 22 21 20 19 18 17 17 17 16 16 16 16 16 16 16 16 16 16 16 16 16 16 16
26 26 26 27 27 27 28 28 29 28 28 28 28 29 28 28 27 27 26 24 23 21 21 20 19 18 18 17 17 17 16 16 16 16 16 16 16 16 16 16 16 16 16 16
25 26 26 27 27 28 27 28 28 28 28 28 28 29 29 28 27 27 25 24 23 21 20 20 19 18 17 17 17 17 16 16 16 16 16 16 16 16 16 16 16 16 16 16
25 26 26 27 27 27 27 27 27 27 28 28 28 29 29 28 27 26 25 24 23 21 20 19 18 18 17 17 17 17 17 16 16 16 16 16 16 16 16 16 16 16 16 15
24 25 25 25 26 27 26 27 27 27 27 27 28 28 29 27 26 25 24 23 22 21 20 19 18 17 17 17 17 17 16 16 16 16 16 16 16 16 16 16 16 15 15 15
24 23 24 25 26 25 25 26 27 27 28 28 27 28 28 26 25 24 23 22 21 21 20 19 18 17 17 17 16 16 16 16 16 16 16 16 16 15 15 15 15 15 15 15
23 22 23 24 24 23 26 27 26 26 27 28 27 27 26 24 22 20 20 21 20 19 19 18 17 17 16 16 16 16 16 16 16 15 16 15 15 15 15 15 15 15 14 14
22 22 22 23 23 24 25 25 25 25 25 26 25 25 23 20 20 19 17 18 18 18 17 17 16 16 16 16 16 16 16 15 15 15 15 15 15 15 15 14 14 14 14 14
21 21 21 22 21 22 24 24 23 23 23 23 23 22 21 20 22 20 16 15 15 15 16 16 16 16 15 15 15 15 15 15 14 14 14 14 14 14 14 14 13 13 13 13
20 20 20 21 21 22 23 22 22 22 22 21 20 20 20 20 20 16 14 14 14 14 14 14 15 15 14 14 14 14 14 14 14 14 14 14 13 13 13 13 12 12 12 12
20 20 20 20 20 21 21 21 21 20 19 19 19 18 18 16 15 14 13 13 13 13 13 13 13 13 13 13 14 13 13 13 13 13 13 13 12 12 12 12 12 11 11 11
19 20 19 20 20 19 18 18 18 17 17 17 17 17 16 14 13 13 12 12 12 12 12 12 12 12 12 12 13 13 12 12 12 12 12 12 12 11 11 11 11 10 10 10
19 19 18 18 19 19 18 17 16 16 16 16 16 15 14 14 13 12 12 11 11 11 11 11 11 11 11 11 11 11 11 11 11 11 11 11 11 10 10 10 10 10 10 10
19 18 18 18 18 18 17 16 15 15 15 14 14 14 13 13 12 11 11 11 11 11 11 11 11 11 10 10 10 10 10 10 11 10 10 10 10 10 10 9 9 9 9 9
18 17 16 17 16 16 15 14 14 13 13 13 13 13 12 12 11 11 10 10 10 10 10 10 10 10 10 10 10 10 10 10 10 10 10 10 9 9 9 9 8 8 8 8
Wind_Speed
11 12 14 11 9 8 8 9 9 7 5 9 10 10 5 3 5 6 8 9 10 11 10 10 11 11 12 12 13 13 14 14 12 10 9 8 8 7 6 6 6 6 6 6
11 16 15 9 7 9 10 11 10 6 5 7 10 10 3 3 5 6 7 9 10 10 10 11 12 12 13 13 14 13 13 14 13 10 8 7 7 7 6 5 6 6 6 6
18 8 6 11 12 12 12 11 9 10 9 7 9 8 3 3 5 5 6 7 8 9 10 11 12 13 13 13 13 13 13 13 13 12 9 8 7 6 6 7 6 6 6 6
15 13 9 11 13 12 12 8 8 9 11 8 5 9 1 3 4 6 7 7 7 7 9 10 10 12 12 13 13 13 13 13 12 13 12 13 10 9 8 7 6 7 7 6
10 9 11 14 14 12 11 5 7 9 10 11 6 8 2 2 3 4 6 7 7 7 8 9 9 10 10 11 12 12 13 12 12 12 13 12 10 8 8 7 8 7 7 6
12 7 8 9 9 10 8 7 8 10 10 9 4 7 5 1 2 1 5 7 7 7 8 8 8 8 8 10 11 11 12 12 13 13 12 12 12 10 10 10 9 8 7 6
15 16 15 12 11 10 11 10 9 9 8 5 1 5 4 3 0 1 4 7 8 8 8 9 9 9 9 10 11 12 12 12 12 12 12 12 12 11 11 10 10 8 7 7
12 11 13 14 16 12 13 14 11 9 7 5 2 4 3 2 2 3 5 7 9 9 9 9 10 10 10 11 11 12 12 12 12 12 11 11 11 9 8 9 8 9 7 6
8 6 6 8 11 13 11 13 12 11 11 10 6 4 1 4 5 6 7 9 9 9 9 10 10 10 11 11 11 12 12 12 12 11 11 10 11 9 8 8 8 7 6 6
8 7 7 7 7 11 11 9 8 10 10 10 7 5 3 2 5 8 9 10 10 9 10 10 10 11 11 11 11 11 12 12 12 12 11 10 10 10 9 8 8 7 7 6
11 10 8 8 10 11 10 10 10 10 9 10 9 4 2 1 4 8 10 10 11 11 10 11 11 12 13 12 13 12 12 11 11 11 11 10 10 10 9 8 8 8 8 8
10 8 11 11 6 4 10 12 12 11 10 10 11 6 4 1 3 6 9 10 11 11 11 11 12 13 13 13 13 13 13 12 11 11 11 10 9 9 9 9 9 8 9 9
5 6 9 11 10 9 11 12 13 12 11 12 13 7 6 4 4 7 9 11 11 11 11 12 12 13 13 14 13 13 13 12 12 11 11 10 10 10 9 8 8 9 8 8
3 7 11 13 6 5 9 12 12 14 14 14 14 12 5 4 6 8 10 11 12 12 12 12 12 12 13 13 13 13 12 12 12 12 11 10 10 9 8 8 8 8 8 7
4 9 11 11 8 8 11 12 13 15 16 16 14 13 9 4 5 7 10 11 12 13 13 13 13 12 13 13 13 12 12 12 11 11 11 10 9 9 8 7 6 6 6 6
3 7 9 12 12 12 14 14 15 17 17 17 17 16 8 2 3 6 9 11 12 13 14 14 13 13 13 13 13 13 12 12 12 11 10 9 9 8 7 7 6 5 4 3
5 6 10 14 12 12 17 17 18 18 17 17 18 14 5 4 4 5 7 10 11 11 12 13 13 12 12 12 12 12 12 12 12 11 10 9 8 7 7 7 6 6 5 5
7 8 8 12 11 16 12 6 9 14 17 16 15 9 4 2 1 2 2 6 9 10 10 10 10 10 10 10 11 11 11 11 11 10 9 9 8 8 7 7 7 7 6 6
6 8 9 10 15 16 13 7 7 11 14 9 9 5 2 4 4 2 2 3 5 7 8 8 9 10 10 11 12 12 12 11 11 10 9 8 8 9 9 9 8 8 8 8
5 7 9 11 12 13 7 2 3 7 12 1 2 2 3 6 6 4 6 6 7 7 7 8 9 10 11 11 12 13 13 12 11 10 9 9 9 10 10 10 9 8 9 9
7 8 11 14 14 11 3 3 3 9 4 5 3 2 3 4 0 8 9 8 9 9 10 11 11 11 11 11 13 13 13 12 11 11 11 11 11 11 12 11 10 9 10 10
8 8 9 9 12 9 3 3 5 6 8 7 4 2 2 6 10 11 11 11 11 12 12 13 13 13 12 12 14 14 13 12 12 13 13 13 11 11 11 11 10 10 10 10
6 6 5 6 6 4 5 6 8 8 8 5 3 1 6 10 11 12 12 12 12 13 13 14 15 15 14 13 14 15 13 12 13 14 14 13 12 11 11 11 10 9 7 6
5 5 7 8 8 7 8 7 7 6 6 4 2 4 8 11 13 14 13 13 13 13 14 14 16 17 15 14 15 14 12 12 14 14 13 12 12 12 10 8 7 6 6 5
6 5 7 10 10 8 5 5 5 3 2 3 5 7 10 14 15 15 14 14 13 14 14 14 15 16 16 14 14 13 12 12 14 13 12 11 11 11 10 10 10 8 10 8
6 6 7 7 6 5 6 5 2 0 1 5 9 11 13 15 17 16 15 14 14 14 14 15 16 16 15 14 14 12 11 11 11 11 9 9 8 8 8 9 10 16 13 15
Wind_Direction
204 226 230 233 244 276 282 279 283 299 320 305 301 308 311 216 212 208 203 199 199 202 192 184 187 188 185 184 180 183 184 180 176 175 173 170 174 172 176 177 172 182 186 182
210 230 237 244 248 255 258 266 274 287 319 304 305 300 294 211 214 216 208 205 207 201 192 187 190 193 194 189 185 182 184 182 181 177 173 173 168 172 170 171 168 182 183 185
223 230 226 232 235 243 250 258 279 302 308 262 294 279 200 187 201 207 210 209 206 202 197 193 195 198 195 191 186 185 185 185 181 171 162 159 156 162 168 174 175 180 182 187
234 239 229 235 235 238 247 252 276 290 294 306 316 309 260 188 207 207 205 203 201 197 195 193 193 191 190 190 186 182 179 180 175 170 173 173 177 178 176 175 169 172 180 184
218 223 226 233 238 237 252 270 272 280 284 288 279 295 331 183 238 205 194 194 193 189 190 189 190 188 186 183 179 176 175 174 175 178 178 180 182 176 166 165 162 177 173 181
241 224 237 241 238 236 237 244 251 255 264 270 306 301 320 20 320 191 172 179 184 180 179 178 179 176 172 170 170 170 171 171 174 178 180 185 180 172 165 171 171 182 174 178
234 236 232 235 238 218 221 238 245 244 240 263 53 287 323 21 290 208 177 172 173 173 173 171 172 172 169 167 167 167 169 170 173 177 183 184 179 175 176 180 182 185 178 176
221 228 216 217 225 226 222 235 248 267 277 292 230 287 349 90 155 168 166 163 167 171 171 169 169 171 171 168 166 167 170 170 172 176 180 179 177 179 180 186 185 188 187 177
224 219 178 206 217 226 222 233 251 263 270 279 279 285 234 158 176 175 169 167 172 170 166 165 167 169 167 166 167 169 169 169 172 174 171 173 179 180 176 179 190 185 180 174
240 245 205 188 204 218 245 245 234 248 261 271 270 274 313 198 191 182 181 176 170 169 166 162 165 165 163 164 163 166 168 170 172 173 172 171 176 177 178 183 187 185 184 186
233 241 222 199 216 210 204 220 236 248 261 272 280 291 49 322 200 188 183 177 170 170 167 163 164 164 163 163 162 163 164 166 172 173 174 172 175 177 180 186 190 189 192 194
217 237 244 228 219 257 234 234 229 243 248 251 274 284 102 135 175 181 175 171 167 168 165 161 161 164 165 166 165 164 166 168 170 171 173 176 174 176 183 187 192 194 197 203
191 224 236 225 212 210 228 231 237 246 259 257 262 267 130 145 173 176 173 168 166 166 165 161 160 165 167 169 170 169 171 170 170 170 173 175 177 181 188 190 195 198 202 208
229 239 250 259 264 219 223 228 231 237 246 254 256 272 236 204 195 184 178 173 169 167 167 166 164 167 168 169 170 171 172 170 169 170 173 177 180 181 185 188 194 198 204 207
249 246 248 263 273 265 256 247 238 240 253 264 271 273 278 250 214 192 184 177 173 171 171 171 170 168 169 170 171 171 171 170 169 170 174 175 173 173 177 179 185 193 202 207
253 266 260 257 256 259 259 255 249 248 252 258 265 270 279 248 189 188 187 182 179 176 174 172 171 171 172 172 172 171 171 169 168 170 170 169 167 168 169 170 174 175 175 176
249 256 260 259 258 263 254 251 251 252 251 253 259 269 254 222 202 191 188 187 183 177 172 170 170 171 172 173 171 168 165 163 163 163 162 159 160 162 160 159 153 146 136 119
255 259 258 261 259 252 259 276 274 268 264 261 263 269 268 258 145 137 187 189 177 170 165 163 162 159 158 159 158 155 152 153 153 151 147 143 147 144 138 132 121 112 106 102
240 243 252 255 253 257 258 258 273 272 267 272 270 259 194 130 140 144 109 131 144 147 147 147 151 149 148 148 146 142 140 139 137 134 131 130 132 127 120 111 107 105 106 105
209 228 244 247 255 258 265 21 336 281 259 311 315 242 189 186 224 179 121 112 112 113 123 129 129 127 130 135 136 132 130 127 124 121 118 115 114 114 110 106 106 106 107 105
224 227 238 248 251 256 307 342 280 249 287 19 351 304 224 227 57 112 115 108 108 109 111 113 113 112 112 118 121 117 115 114 114 112 107 104 104 106 106 105 106 109 107 103
257 252 242 247 249 250 32 308 278 316 338 330 330 342 99 108 111 117 114 110 107 105 103 104 102 100 99 105 108 106 103 106 108 106 102 101 101 103 105 105 104 105 110 111
246 266 277 262 270 339 328 305 304 302 297 302 304 106 132 130 127 122 115 109 104 102 100 101 101 97 94 96 101 102 101 104 104 102 101 100 99 98 103 106 108 109 110 108
246 257 259 264 266 288 301 301 300 291 280 265 213 157 145 135 128 122 115 110 107 104 102 103 101 97 93 92 93 97 102 106 106 104 103 103 101 99 93 92 94 93 90 95
274 261 261 265 275 285 295 318 316 312 277 182 157 150 141 132 127 123 117 112 108 104 102 101 100 99 97 96 97 99 103 105 105 104 105 104 100 96 88 74 55 63 57 47
264 263 271 282 307 296 302 316 317 14 123 141 137 131 126 125 123 118 113 111 109 105 104 102 100 99 98 97 95 95 97 101 106 109 110 108 108 107 108 105 88 58 65 66
Height
1499 1498 1494 1489 1489 1490 1491 1491 1489 1484 1480 1480 1477 1476 1475 1481 1483 1485 1488 1490 1493 1495 1497 1499 1500 1502 1505 1507 1511 1514 1519 1523 1527 1531 1535 1539 1543 1546 1549 1552 1553 1555 1557 1558
1497 1494 1487 1487 1490 1492 1491 1491 1485 1480 1477 1480 1477 1474 1473 1478 1481 1483 1485 1488 1490 1493 1495 1497 1498 1499 1501 1504 1508 1511 1515 1520 1524 1528 1533 1537 1541 1545 1548 1550 1552 1554 1555 1557
1490 1484 1485 1488 1490 1491 1488 1488 1484 1484 1478 1475 1477 1471 1472 1475 1479 1482 1484 1486 1487 1490 1492 1494 1495 1497 1499 1502 1505 1508 1512 1516 1521 1526 1531 1535 1539 1542 1546 1548 1550 1552 1554 1556
1484 1481 1485 1488 1487 1486 1487 1480 1482 1482 1482 1476 1479 1482 1470 1470 1474 1477 1480 1483 1485 1488 1490 1491 1493 1494 1496 1499 1502 1506 1509 1514 1518 1523 1528 1533 1537 1540 1544 1547 1549 1551 1553 1555
1481 1480 1483 1486 1482 1482 1481 1479 1481 1480 1480 1479 1474 1480 1469 1468 1470 1471 1476 1480 1483 1486 1488 1489 1491 1492 1495 1497 1500 1503 1507 1511 1516 1521 1526 1531 1535 1539 1542 1545 1547 1550 1552 1553
1475 1477 1479 1477 1476 1478 1479 1481 1480 1478 1475 1486 1477 1482 1474 1464 1467 1468 1473 1478 1482 1484 1486 1488 1490 1491 1493 1495 1498 1501 1505 1509 1514 1519 1524 1528 1533 1537 1540 1543 1546 1549 1551 1552
1478 1474 1473 1475 1477 1476 1478 1484 1489 1489 1486 1482 1473 1478 1471 1463 1465 1468 1471 1476 1480 1483 1485 1487 1489 1490 1492 1494 1497 1500 1504 1508 1512 1517 1522 1526 1530 1535 1538 1542 1545 1548 1550 1552
1477 1475 1466 1468 1472 1472 1473 1475 1489 1495 1489 1476 1470 1474 1463 1462 1466 1469 1472 1475 1479 1482 1484 1486 1487 1489 1491 1494 1496 1500 1503 1507 1511 1516 1520 1525 1529 1533 1537 1540 1543 1546 1549 1551
1468 1470 1462 1464 1465 1467 1471 1471 1463 1473 1476 1482 1471 1464 1458 1462 1465 1468 1470 1474 1477 1480 1483 1485 1487 1489 1491 1493 1496 1499 1502 1506 1510 1515 1519 1523 1527 1531 1535 1539 1542 1545 1547 1549
1461 1470 1460 1462 1464 1465 1464 1461 1468 1474 1487 1489 1475 1468 1462 1459 1461 1464 1468 1472 1476 1479 1482 1484 1486 1488 1491 1493 1496 1499 1502 1506 1510 1514 1518 1523 1527 1530 1534 1537 1540 1543 1545 1547
1460 1469 1462 1462 1464 1462 1467 1468 1466 1465 1468 1481 1483 1470 1450 1454 1457 1460 1465 1469 1474 1477 1480 1483 1486 1488 1491 1493 1496 1499 1502 1506 1509 1514 1518 1522 1526 1529 1533 1536 1539 1541 1543 1545
1461 1462 1462 1457 1453 1456 1457 1458 1462 1472 1472 1470 1473 1465 1449 1452 1455 1459 1463 1468 1472 1476 1479 1482 1484 1487 1490 1493 1496 1499 1502 1505 1509 1513 1517 1520 1524 1528 1531 1534 1537 1539 1541 1543
1461 1465 1471 1465 1462 1460 1458 1455 1456 1458 1463 1465 1469 1461 1450 1453 1455 1459 1462 1467 1471 1475 1478 1481 1484 1486 1489 1493 1496 1499 1502 1506 1509 1512 1516 1519 1523 1526 1529 1533 1535 1537 1539 1541
1463 1461 1464 1464 1456 1451 1457 1455 1455 1458 1460 1460 1457 1452 1448 1450 1454 1458 1462 1466 1469 1473 1477 1480 1483 1486 1489 1492 1495 1498 1502 1505 1508 1511 1515 1518 1521 1524 1527 1530 1533 1535 1537 1539
1462 1460 1457 1453 1451 1452 1453 1453 1454 1456 1454 1455 1449 1446 1443 1446 1451 1456 1460 1464 1468 1471 1475 1478 1481 1484 1487 1490 1494 1497 1501 1504 1507 1510 1514 1517 1520 1523 1525 1528 1530 1533 1535 1537
1462 1462 1459 1458 1453 1452 1454 1451 1451 1451 1450 1449 1448 1446 1442 1448 1453 1456 1459 1463 1466 1469 1473 1476 1479 1482 1485 1488 1492 1495 1499 1502 1505 1509 1512 1515 1518 1521 1523 1525 1528 1530 1532 1534
1459 1464 1465 1460 1452 1454 1458 1448 1447 1446 1443 1444 1446 1442 1443 1448 1453 1456 1459 1461 1464 1467 1471 1474 1477 1480 1483 1487 1490 1493 1497 1500 1504 1507 1510 1513 1516 1519 1521 1523 1525 1527 1529 1531
1464 1465 1463 1460 1461 1470 1448 1440 1442 1443 1440 1438 1439 1442 1446 1451 1456 1459 1460 1461 1464 1466 1469 1472 1475 1478 1481 1485 1488 1492 1495 1498 1502 1505 1508 1511 1514 1517 1519 1521 1523 1525 1527 1528
1462 1465 1463 1461 1461 1454 1444 1442 1445 1446 1442 1440 1441 1445 1450 1454 1457 1459 1461 1462 1464 1466 1468 1471 1474 1477 1480 1483 1486 1490 1493 1497 1501 1504 1506 1509 1512 1515 1517 1519 1521 1523 1525 1527
1462 1464 1464 1462 1466 1463 1446 1444 1448 1450 1448 1445 1447 1448 1451 1454 1452 1456 1462 1463 1464 1466 1468 1470 1473 1476 1479 1483 1486 1489 1493 1497 1500 1503 1506 1509 1511 1513 1516 1518 1520 1523 1524 1526
1462 1463 1463 1461 1461 1451 1446 1448 1450 1455 1450 1450 1450 1451 1452 1453 1454 1459 1462 1464 1465 1467 1469 1471 1474 1477 1480 1483 1487 1490 1493 1497 1500 1503 1506 1509 1512 1513 1516 1518 1521 1523 1524 1526
1459 1459 1459 1458 1460 1454 1450 1449 1451 1451 1453 1452 1452 1453 1454 1455 1458 1460 1463 1465 1467 1469 1471 1473 1475 1478 1481 1485 1488 1491 1494 1498 1501 1504 1507 1510 1512 1515 1517 1519 1522 1524 1526 1527
1459 1458 1457 1456 1455 1453 1453 1454 1454 1454 1453 1452 1453 1454 1455 1457 1460 1462 1465 1467 1470 1472 1474 1476 1478 1480 1484 1488 1491 1493 1497 1500 1503 1506 1509 1512 1514 1517 1519 1522 1524 1525 1527 1530
1457 1459 1458 1456 1451 1452 1453 1452 1452 1452 1452 1452 1453 1454 1456 1458 1461 1464 1467 1470 1473 1476 1478 1481 1483 1484 1488 1492 1494 1497 1500 1503 1506 1509 1512 1515 1517 1519 1521 1524 1526 1528 1529 1531
1456 1457 1456 1454 1452 1452 1451 1452 1452 1450 1450 1450 1451 1453 1456 1459 1462 1466 1469 1473 1476 1479 1482 1485 1487 1489 1492 1496 1499 1502 1505 1508 1510 1512 1516 1518 1520 1522 1523 1525 1526 1528 1529 1530
1455 1456 1456 1453 1452 1453 1452 1452 1451 1450 1449 1449 1450 1453 1457 1460 1464 1468 1472 1477 1480 1483 1486 1489 1492 1494 1497 1501 1504 1507 1509 1512 1513 1516 1519 1521 1523 1524 1526 1527 1528 1528 1529 1530